Volver al catálogo

FENGYUN 1C DEB

LostPO
NORAD 32164·DEBRIS·🇨🇳 China

Lanzado May 10, 1999 desde Taiyuan Satellite Launch Center

Loading…

Próximos Pases (próximas 24 horas)

TLE

ObsoletoSource: Space-Track

Época: Mar 13, 2015, 02:09 UTC

1 32164U 99025CTJ 15072.08990584  .00002255  00000-0  55693-3 0  9994
2 32164  99.3273  29.7416 0124038 216.0851 143.1921 14.48733747405009

Sigue FENGYUN 1C DEB en tiempo real con AllMySat

Download on the App Store